FW2893 Weather Reports


time (UTC)temp
C
wind
direction
speed
KPH
gust
KPH
rain 1hr
cm
rain 24hr
cm
rain mn
cm
humidity
%
barometer
mb
20260504043041 9 0.0 1.6 0.00 0.00 0.00 67 1006.1
20260504040100 6 0.0 3.2 0.00 0.00 0.00 86 1006.2
20260504033101 2 0.0 4.8 0.00 0.00 0.00 89 1006.2
20260504030041 0 270 1.6 4.8 0.00 0.00 0.00 89 1006.0
20260504023040 -1 270 1.6 6.4 0.00 0.00 0.00 90 1006.2
20260504020040 -2 248 1.6 6.4 0.00 0.00 0.00 89 1006.2
20260504013040 -1 248 1.6 8.0 0.00 0.00 0.00 89 1006.2
20260504010413 -1 293 1.6 4.8 0.00 0.00 0.00 89 1006.2
20260504003041 -1 293 1.6 6.4 0.00 0.00 0.00 89 1006.3
20260504000041 -1 293 3.2 6.4 0.00 0.00 0.00 88 1006.4
20260503233040 0 315 1.6 6.4 0.00 0.00 0.00 89 1006.6
20260503230040 0 293 3.2 6.4 0.00 0.00 0.00 89 1006.4
20260503223040 0 338 3.2 6.4 0.00 0.00 0.00 88 1006.5
20260503220043 0 338 1.6 6.4 0.00 0.00 0.00 88 1006.7
20260503213042 0 293 1.6 3.2 0.00 0.00 0.00 87 1006.9
20260503210040 0 293 3.2 6.4 0.00 0.00 0.00 86 1007.0
20260503203041 1 270 3.2 8.0 0.00 0.00 0.00 86 1007.1
20260503200044 2 270 3.2 6.4 0.00 0.00 0.00 85 1007.1
20260503193041 1 270 3.2 6.4 0.00 0.00 0.00 84 1007.1
20260503190432 2 270 4.8 8.0 0.00 0.00 0.00 83 1007.2
20260503183047 2 270 3.2 8.0 0.00 0.00 0.00 81 1007.3
20260503180100 3 270 4.8 8.0 0.00 0.00 0.00 78 1007.4
20260503173040 5 270 4.8 8.0 0.00 0.00 0.00 76 1007.3
20260503110142 13 23 9.7 16.1 0.00 0.00 0.00 43 1007.9
20260503090414 13 68 9.7 22.5 0.00 0.00 0.00 45 1008.2
20260503060202 12 45 12.9 22.5 0.00 0.00 0.00 55 1009.3
20260503053041 11 45 9.7 17.7 0.00 0.00 0.00 60 1009.5